OBJECT BH, 61790

Orbit data source: Space-Track

You're viewing an uncataloged RSO

Recently launched and/or uncataloged RSOs may have evolving metadata. Metadata may include the following, but is not limited to: Owner, Manufacturer, Bus, Motor, and Mission.

OBJECT BH, 61790 is a satellite in SSO that was launched on Mon, 04 Nov 2024 UTC via a SOYUZ-2-1B launch vehicle from the Vostochny Cosmodrome (VOSTO). Unknown objects in Earth's orbit typically refer to objects detected orbiting the Earth but have not yet been identified or cataloged. These objects could be anything from previously untracked satellites, spent rocket stages, debris from satellite collisions, or even natural meteoroids temporarily captured by Earth's gravity.

Loading next visibility...
Identifier
61790, 2024-199BH
Orbit
SSO
Country
Flag of TBDTBD
Related business
Manufacturer
Sputniks
Mission
Operational Commercial Communications
Bus & Motor
CUBESAT 3U?, Unknown motor
Mass
3 kg wet, 3 kg dry
Launch date (UTC)
2024-11-04 (2 years ago)
Launch vehicle
SOYUZ-2-1B
Launch site
Vostochny Cosmodrome (VOSTO)
Object type
Unknown
Shape & HBR
Box, 0.2 m
Radar Cross Section
0.035 m², Medium (>0.1 m² and < 1m²)

Expand to show TLE details & history
Last TLE update: 9 hours ago

TLE from 9 hours ago
0 OBJECT BH
1 61790U 24199BH  26264.28830549  .00002201  00000-0  18940-3 0  9997
2 61790  97.3185  97.9162 0007889 103.7577 256.4525 14.98304467146426
Epoch: 2026-09-21T06:55Z
TLE epoch observation values (Epoch: 2026-09-21T06:55:09.594Z)
Latitude
-0.00002°
Longitude
-6.04406°
Altitude
576.487 km
Speed
7.572 km/s
True Right ascension
06h 31m 39s
True Declination
0° 00' 00"
Sunlit
Object was in daylight at epoch
Visualization orbit readout
Latitude
Unknown
Longitude
Unknown
Altitude
Unknown
Speed
Unknown
Apparent Right ascension
Unknown
Apparent Declination
Unknown
Sunlit
N/A
Visualization observer readout
Local Sidereal Time
08:59:37
Azimuth
Unknown
Elevation
Unknown
Doppler factor
Unknown
Orbital elements
Apogee altitude
574.607 km
Perigee altitude
563.645 km
Semi-major axis
6,947.263 km
Eccentricity
0.00079
Inclination
97.3185°
RAAN
97.9162°
Arg. of periapsis
103.7577°
True anomaly
256.36463°
Mean anomaly
256.4525°
Eccentric anomaly
256.40857°
Mean motion
3.7482 °/min
Orbital period
96.05 mins
BSTAR
0.0001894
Loading maneuver chart data...
Computing Atmospheric mass density...
Loading historical data...
Loading historical data...
Loading historical data...
Loading historical data...
Loading historical data...
Loading historical data...
Loading historical data...

Documentation

Showing up to 5 results
|